Temperature
23 21 21 20 20 19 19 19 19 19 18 18 18 18 18 18 18 18 18 18 17 17 17 17 17 17 17 17 17 17 17 17 17 17 18 18 18 18 17 17 17 17 17
23 21 21 20 20 20 19 19 19 19 19 18 18 18 18 17 18 18 17 17 17 17 17 17 17 17 17 17 17 17 17 17 17 17 18 18 18 17 18 17 17 17 17
23 22 21 20 20 20 19 19 19 19 19 18 18 18 18 18 18 17 17 17 17 17 17 17 17 17 17 17 17 17 17 17 17 17 17 18 19 18 18 17 17 17 17
24 22 21 21 20 20 19 19 19 19 19 19 18 18 18 18 18 17 17 17 17 17 17 17 17 17 17 17 17 17 17 17 17 17 17 17 18 18 18 17 17 17 17
24 23 22 21 20 20 19 19 19 19 19 19 18 18 18 18 18 17 17 17 17 17 17 17 17 17 17 17 17 17 17 17 17 17 17 17 17 17 17 17 17 17 17
24 23 22 21 20 20 20 19 19 19 19 19 18 18 18 18 18 17 17 17 17 17 17 17 17 17 17 17 17 17 17 17 17 17 17 17 17 17 17 17 17 17 16
24 23 22 21 21 20 20 19 19 19 19 18 18 18 18 18 17 17 17 17 17 17 17 17 17 17 17 17 17 17 17 17 17 17 16 16 16 17 17 17 17 16 16
24 23 22 21 21 20 20 19 19 19 19 18 18 18 18 17 17 17 17 17 17 17 17 17 17 17 17 17 17 17 16 17 17 16 16 16 16 16 16 16 16 16 16
24 24 23 22 21 20 20 20 19 19 18 18 18 18 18 17 17 17 17 17 17 17 17 17 17 17 17 17 17 17 16 16 16 16 16 16 16 16 16 16 16 16 16
24 24 23 22 21 21 20 19 19 19 18 18 18 18 17 17 17 17 17 17 17 17 17 17 17 17 17 17 17 16 16 16 16 16 16 16 16 16 16 15 15 15 16
25 24 23 22 21 21 20 20 19 19 18 18 18 18 17 17 17 17 17 17 17 17 17 17 17 17 17 16 16 16 16 16 16 16 16 16 15 15 15 15 15 15 15
25 24 23 22 21 21 20 19 19 19 18 18 18 18 17 17 17 17 17 17 17 17 17 16 16 16 16 16 16 16 15 15 15 15 15 15 15 15 15 15 15 15 15
24 23 22 22 21 20 20 20 19 19 18 18 18 18 18 17 17 17 17 17 16 16 16 16 16 16 16 16 16 15 15 15 15 15 15 15 15 15 15 15 14 14 14
23 23 22 21 21 20 20 19 19 19 18 18 18 17 17 17 17 17 16 16 16 16 16 16 16 15 15 15 15 15 15 15 15 14 14 14 14 14 14 14 14 14 14
23 22 22 21 20 20 19 19 19 19 18 18 17 17 17 17 17 16 16 16 16 16 16 15 15 15 15 15 15 15 14 14 14 14 14 14 14 14 14 14 14 13 13
23 22 21 20 20 19 19 19 19 19 18 18 18 17 17 17 17 16 16 16 16 16 15 15 15 15 15 15 15 15 14 14 14 14 14 14 14 14 14 14 13 13 13
22 21 20 20 19 19 19 19 19 18 18 18 17 17 17 17 16 16 16 16 16 15 15 15 15 15 15 15 15 14 14 14 14 14 13 13 13 13 13 13 13 13 13
21 21 20 20 19 19 19 19 19 18 18 17 17 17 17 16 16 16 16 15 15 15 15 15 14 14 14 14 14 14 14 13 13 13 13 13 13 13 13 12 12 12 12
20 20 20 19 19 19 19 19 18 18 18 17 17 17 17 16 16 16 15 15 15 15 15 14 14 14 14 14 14 14 13 13 13 13 13 12 13 12 12 12 12 12 12
20 20 19 19 19 19 19 18 18 18 18 17 17 17 16 16 15 15 15 15 15 15 14 14 14 13 13 13 13 13 13 13 13 12 12 12 12 12 12 11 11 11 11
19 19 19 18 19 18 18 18 18 18 17 17 16 16 16 16 15 15 15 15 15 14 14 13 13 13 13 13 13 13 13 12 12 12 12 12 12 12 12 11 11 11 11
18 18 18 18 18 18 18 18 17 17 16 16 16 16 16 15 15 15 15 14 14 14 13 13 13 13 13 13 12 12 12 12 12 11 11 11 11 11 11 11 11 11 11
18 18 18 18 18 18 17 17 17 17 16 16 16 16 15 15 15 14 14 14 14 13 13 13 13 12 12 12 12 12 12 11 11 11 11 11 11 10 10 10 10 10 10
18 17 17 17 17 17 17 17 17 16 16 16 15 15 15 15 14 14 14 14 13 13 13 13 12 12 12 12 11 11 11 11 11 11 11 10 10 10 10 10 10 10 10
17 17 17 17 16 16 16 16 16 16 15 15 15 15 14 14 14 14 14 13 13 13 12 12 12 12 11 11 11 11 11 10 10 10 10 10 10 10 10 10 10 10 10
16 16 16 16 16 16 16 16 16 15 15 15 14 14 14 14 13 13 13 13 13 12 12 12 11 11 11 11 11 11 11 10 10 10 10 10 10 10 10 10 9 9 9
Wind_Speed
5 5 5 5 5 5 5 5 5 4 4 3 3 3 3 3 3 3 3 4 4 4 4 4 3 4 3 4 3 3 3 4 3 3 3 4 5 5 4 4 4 5 6
6 6 6 6 6 6 5 5 5 5 5 3 2 2 2 2 2 2 2 4 4 4 5 4 4 4 4 4 5 4 4 4 4 4 4 4 4 4 4 4 4 4 4
7 7 8 7 7 7 6 5 4 4 4 3 3 2 2 2 2 2 3 3 4 5 5 4 5 4 5 4 5 5 6 5 4 4 4 4 3 2 3 4 3 3 3
7 8 8 8 8 7 6 5 5 4 4 4 3 3 2 2 2 2 2 2 3 4 5 5 5 5 5 5 6 5 5 5 5 4 5 6 4 3 2 3 3 3 3
8 8 9 8 8 7 6 6 5 5 4 4 4 3 3 2 1 1 2 3 3 4 5 5 5 5 5 5 6 4 5 5 6 5 4 5 5 6 5 3 3 2 3
8 9 8 8 7 7 7 6 6 5 5 4 4 3 3 2 2 2 2 3 2 3 4 5 4 5 5 5 5 5 6 5 6 6 5 5 4 5 5 5 4 3 3
9 9 9 9 8 8 7 6 6 5 4 4 4 4 3 3 3 2 2 3 2 2 2 3 3 4 4 5 5 5 5 5 6 5 5 5 5 5 5 5 5 4 3
9 9 9 9 8 8 7 6 6 5 4 4 4 3 3 3 2 2 2 2 3 3 2 2 3 3 4 4 4 4 5 4 5 5 5 4 5 5 5 4 4 4 4
10 10 10 9 8 8 7 6 6 5 4 4 3 3 3 2 2 2 2 2 2 2 2 2 2 2 3 3 4 3 4 4 4 4 4 4 4 4 4 4 4 4 4
10 10 10 9 9 8 7 6 5 5 4 3 3 2 2 2 2 2 1 2 1 1 1 2 2 2 1 2 3 3 3 3 3 3 3 4 4 4 4 4 4 4 4
10 10 9 9 9 8 8 7 6 5 4 3 3 2 2 2 2 1 0 1 1 1 1 1 1 1 1 1 1 2 2 3 3 3 4 4 4 3 3 3 3 3 3
10 10 10 10 9 8 8 7 6 5 4 4 3 3 2 2 2 1 1 0 0 0 1 1 1 1 1 1 1 2 2 2 3 3 3 3 3 3 3 2 3 2 2
10 10 10 9 9 8 7 7 6 5 5 5 4 3 3 3 2 1 1 1 1 0 1 1 1 1 1 1 1 2 2 2 2 3 3 3 2 2 2 2 2 2 3
9 9 9 8 8 8 7 7 6 5 5 5 4 3 3 3 2 2 2 1 1 1 1 1 1 1 2 2 2 2 2 2 3 3 3 2 2 2 2 2 2 2 2
9 9 9 8 8 8 7 6 6 5 5 4 4 3 3 2 2 2 2 2 2 2 2 1 1 1 1 2 3 2 2 2 2 3 3 3 3 4 2 1 1 2 2
8 8 8 8 8 8 7 6 5 5 5 4 4 3 3 3 2 3 3 3 2 2 2 2 2 2 2 4 4 3 1 1 2 2 2 2 3 3 3 3 3 2 1
7 7 7 7 7 7 7 6 5 4 4 4 3 3 3 3 3 3 3 3 2 2 2 2 2 2 4 5 4 4 1 1 2 2 2 1 2 2 1 2 3 3 3
6 6 6 6 6 7 7 6 6 6 5 4 3 3 3 3 3 3 3 2 2 2 2 2 2 2 4 5 4 3 1 2 2 2 2 2 2 3 2 2 3 3 2
5 6 6 6 6 7 7 7 6 6 5 4 3 3 3 3 3 3 3 3 2 2 2 2 2 2 3 5 4 4 1 2 2 3 3 3 3 5 4 1 2 2 2
5 5 5 6 6 6 7 7 6 5 5 4 4 3 3 3 3 2 3 3 3 3 3 3 2 3 3 4 4 4 1 2 2 2 3 6 4 5 4 1 1 1 1
5 5 5 5 6 6 7 7 6 6 5 5 5 4 4 4 3 3 2 3 3 3 3 3 3 3 3 4 3 4 1 1 1 1 2 3 4 4 4 2 1 1 1
5 5 5 5 6 6 6 6 5 4 5 5 5 4 4 3 3 3 3 3 3 4 4 3 2 2 3 3 3 2 3 3 2 1 2 3 3 3 3 2 3 3 3
4 4 5 6 6 6 6 5 5 5 5 5 5 5 5 4 3 3 4 4 3 2 2 2 2 2 2 3 4 3 2 2 1 2 4 3 1 3 2 2 2 2 1
3 3 5 6 6 5 5 5 5 5 5 6 5 5 5 4 4 3 3 3 2 2 2 2 1 1 2 2 1 1 2 3 2 2 3 4 2 2 1 2 1 0 1
2 3 4 6 6 5 5 5 5 5 5 5 5 5 5 5 4 4 3 2 2 1 0 1 1 1 1 2 3 2 1 0 1 1 1 1 1 1 1 1 1 0 0
2 3 5 6 6 6 5 5 5 5 6 5 5 4 4 4 4 5 5 7 6 6 6 5 3 4 5 4 3 3 3 3 2 1 1 1 0 0 1 0 0 0 1
Wind_Direction
170 163 162 162 162 168 174 179 182 173 186 191 207 209 217 227 225 225 213 220 231 227 233 244 207 235 232 234 229 236 229 232 228 239 235 227 226 222 223 231 236 225 223
172 166 166 168 169 170 174 175 177 174 187 183 202 225 261 255 244 247 224 235 238 241 230 238 236 231 238 233 239 237 249 242 222 238 247 233 213 208 217 218 224 229 221
182 173 172 173 172 173 177 178 174 172 185 184 193 191 207 240 237 239 234 245 251 244 251 239 243 239 240 235 237 237 241 250 240 234 247 257 243 198 193 205 216 218 227
184 177 174 176 176 174 174 173 170 174 180 191 203 213 232 256 277 266 250 250 251 249 243 242 240 241 243 240 242 237 246 248 253 243 244 259 283 260 221 205 195 200 219
181 176 174 173 172 172 171 168 169 171 178 196 199 219 240 254 267 261 254 254 240 245 248 244 244 241 244 243 246 250 249 249 254 256 252 248 244 247 251 245 225 215 222
173 168 167 166 169 169 170 169 169 177 183 192 201 221 242 256 266 277 284 266 246 244 244 241 243 243 245 243 243 246 244 252 258 257 254 250 247 241 242 248 241 237 232
169 167 167 169 170 171 173 171 174 182 185 192 204 221 236 238 240 261 267 281 276 260 259 258 243 246 246 247 247 242 252 252 253 255 257 252 251 258 250 247 250 257 252
169 168 168 168 169 171 172 173 177 183 186 194 207 223 232 238 247 259 286 277 287 291 301 273 255 252 252 252 246 252 249 250 253 256 258 258 254 255 249 243 244 247 249
165 166 165 165 166 167 170 172 171 178 185 193 199 209 217 242 260 260 267 274 285 281 270 267 274 274 268 265 257 259 259 253 252 257 252 257 258 246 245 243 238 241 253
164 164 163 163 163 163 163 165 167 167 174 188 203 181 190 205 229 257 287 306 299 303 293 281 286 289 289 272 259 257 261 260 261 271 276 270 271 258 248 244 242 243 249
166 163 161 159 160 159 159 161 162 162 169 176 178 186 182 182 183 201 274 332 323 325 316 296 294 307 312 301 277 273 266 269 276 277 273 274 278 266 251 237 232 232 236
162 159 159 158 160 160 160 161 164 162 163 162 164 171 176 175 177 164 155 132 20 333 28 350 330 335 8 352 328 304 303 295 296 297 299 293 279 266 254 236 225 232 230
163 160 160 162 165 164 163 164 167 162 160 159 165 169 175 169 172 172 155 129 129 86 82 74 34 24 34 29 7 347 334 328 325 321 316 311 301 283 266 243 233 226 215
168 168 163 166 168 165 163 166 166 163 166 168 169 170 176 176 175 168 154 139 135 118 99 91 66 37 35 29 13 357 353 348 350 351 347 342 332 317 295 259 241 234 228
175 176 171 168 168 166 167 168 165 162 164 168 168 170 168 163 168 163 148 139 138 128 107 83 68 44 36 30 10 349 5 358 358 9 11 21 30 24 12 339 291 232 228
176 173 172 170 171 171 169 166 165 163 165 171 174 172 161 154 157 154 141 134 132 117 102 81 68 57 43 37 13 343 12 8 7 17 20 45 63 77 79 55 39 14 240
173 173 173 174 174 171 168 166 159 153 157 164 168 161 155 154 157 156 148 145 143 129 121 112 90 65 47 41 27 357 358 20 27 23 10 19 51 65 85 118 128 77 37
169 173 176 177 174 167 160 158 153 157 160 161 164 161 164 163 160 158 156 153 149 142 135 121 101 80 51 44 31 344 80 59 51 43 31 36 35 31 20 87 96 92 76
167 167 174 176 169 165 159 155 160 162 163 163 167 168 166 166 166 167 167 161 156 149 137 115 101 85 64 43 19 333 102 87 68 56 45 32 43 13 349 48 97 106 111
155 157 162 162 159 159 160 157 159 161 165 166 161 159 157 165 172 175 172 161 158 150 136 115 108 97 78 55 25 331 105 88 79 74 70 50 29 19 356 57 90 89 78
147 147 149 150 149 151 155 156 159 167 167 159 153 152 151 156 158 160 157 151 150 140 128 121 110 94 76 82 49 355 2 47 66 73 65 55 48 38 16 351 44 1 303
145 147 144 141 143 147 150 154 159 159 154 153 151 148 147 148 146 155 153 151 155 149 139 132 123 104 90 69 74 46 20 356 60 49 59 69 74 62 34 32 16 322 281
141 147 145 143 143 147 149 153 155 154 153 151 145 142 140 137 138 146 149 152 158 158 154 152 140 115 102 102 111 123 88 10 58 69 68 76 150 180 123 87 307 275 256
139 150 156 154 151 152 152 152 152 157 158 155 149 147 146 144 137 142 143 146 149 158 162 152 140 124 106 78 85 139 146 156 140 121 144 174 196 196 113 157 200 275 342
165 172 170 162 159 154 152 154 155 160 157 156 158 155 151 144 137 122 92 114 97 70 104 136 146 133 117 56 22 2 56 58 108 167 138 120 107 116 111 112 100 12 23
183 182 171 161 157 156 157 155 158 160 160 162 164 163 158 153 152 142 121 64 65 78 66 46 43 80 84 100 90 60 43 26 316 252 121 108 84 0 5 332 114 75 357
Height
1541 1542 1543 1544 1545 1545 1546 1547 1548 1548 1549 1550 1551 1551 1551 1552 1552 1553 1553 1554 1554 1555 1555 1556 1556 1556 1557 1557 1558 1558 1559 1559 1559 1559 1559 1559 1559 1559 1559 1560 1561 1561 1561
1540 1541 1542 1543 1544 1545 1546 1547 1547 1548 1549 1549 1550 1550 1551 1551 1552 1552 1552 1552 1553 1553 1554 1554 1555 1555 1555 1556 1556 1556 1557 1557 1557 1558 1557 1557 1558 1556 1557 1557 1557 1558 1558
1537 1539 1541 1542 1544 1544 1545 1547 1547 1547 1548 1549 1549 1550 1550 1550 1551 1551 1551 1551 1551 1551 1552 1552 1553 1553 1554 1554 1554 1554 1554 1555 1555 1555 1556 1555 1554 1555 1555 1554 1555 1555 1556
1536 1538 1539 1541 1543 1544 1545 1546 1546 1547 1547 1548 1549 1549 1550 1550 1550 1550 1549 1549 1549 1550 1550 1550 1550 1550 1551 1551 1552 1552 1552 1553 1553 1553 1552 1553 1553 1553 1552 1553 1553 1553 1553
1534 1536 1538 1540 1542 1543 1544 1545 1545 1546 1546 1547 1547 1547 1548 1548 1548 1548 1548 1547 1548 1548 1548 1548 1548 1548 1549 1549 1549 1550 1550 1550 1550 1550 1550 1550 1550 1550 1551 1550 1551 1550 1550
1532 1534 1537 1539 1540 1542 1543 1544 1544 1545 1545 1545 1546 1546 1546 1546 1546 1546 1546 1546 1546 1546 1546 1546 1546 1546 1546 1546 1547 1547 1547 1547 1547 1547 1547 1547 1547 1547 1548 1548 1548 1548 1548
1530 1533 1535 1537 1539 1541 1542 1543 1543 1544 1544 1545 1545 1545 1545 1545 1545 1545 1545 1544 1545 1545 1544 1544 1544 1544 1544 1544 1544 1544 1544 1544 1544 1543 1544 1544 1544 1544 1545 1545 1545 1545 1545
1529 1531 1534 1536 1538 1539 1541 1542 1542 1543 1543 1543 1543 1543 1544 1544 1544 1543 1544 1543 1543 1543 1542 1542 1542 1542 1542 1542 1542 1542 1542 1541 1541 1541 1540 1540 1540 1541 1541 1541 1542 1542 1543
1527 1530 1532 1535 1536 1538 1539 1540 1540 1541 1542 1543 1542 1542 1542 1542 1542 1542 1542 1542 1541 1541 1540 1540 1540 1540 1539 1539 1539 1540 1539 1539 1538 1538 1538 1537 1537 1537 1538 1538 1539 1540 1539
1526 1529 1531 1533 1535 1537 1538 1539 1540 1540 1541 1541 1542 1542 1541 1541 1541 1541 1541 1540 1540 1539 1539 1539 1539 1538 1538 1538 1538 1538 1537 1537 1536 1536 1535 1534 1534 1534 1534 1535 1535 1535 1536
1524 1527 1529 1532 1534 1536 1537 1538 1538 1539 1539 1540 1540 1540 1540 1540 1540 1540 1539 1539 1538 1538 1537 1537 1537 1537 1537 1536 1536 1536 1536 1535 1535 1534 1533 1532 1531 1531 1531 1531 1532 1532 1533
1522 1525 1528 1530 1532 1534 1536 1537 1537 1538 1538 1539 1539 1539 1539 1539 1539 1538 1538 1537 1537 1537 1536 1536 1536 1536 1535 1535 1535 1534 1534 1533 1533 1532 1531 1530 1529 1528 1528 1529 1529 1529 1530
1522 1524 1527 1529 1531 1533 1534 1535 1536 1537 1537 1537 1537 1537 1538 1537 1537 1537 1537 1536 1536 1536 1535 1534 1534 1534 1534 1534 1534 1533 1533 1532 1531 1530 1528 1527 1527 1526 1526 1526 1526 1527 1527
1521 1523 1525 1528 1530 1531 1532 1534 1535 1535 1536 1536 1536 1536 1536 1536 1536 1536 1535 1535 1535 1535 1534 1534 1534 1534 1533 1533 1532 1532 1531 1530 1529 1528 1527 1526 1525 1524 1524 1524 1524 1524 1525
1519 1521 1523 1525 1527 1529 1530 1532 1533 1533 1534 1534 1535 1535 1534 1534 1534 1534 1534 1534 1534 1534 1534 1534 1534 1533 1533 1532 1531 1531 1530 1529 1528 1527 1526 1526 1524 1523 1523 1523 1522 1522 1522
1517 1519 1521 1523 1525 1527 1529 1530 1531 1532 1532 1533 1533 1533 1533 1533 1533 1533 1533 1533 1533 1533 1533 1533 1532 1532 1532 1531 1530 1530 1529 1528 1527 1526 1525 1525 1524 1523 1522 1521 1521 1521 1521
1515 1517 1518 1520 1522 1524 1526 1528 1529 1530 1531 1532 1532 1532 1532 1532 1532 1532 1532 1532 1532 1532 1532 1532 1531 1531 1530 1530 1529 1528 1528 1527 1526 1525 1524 1524 1523 1522 1521 1521 1520 1520 1520
1512 1514 1517 1519 1520 1522 1523 1525 1526 1528 1529 1530 1530 1530 1530 1531 1531 1531 1531 1531 1531 1531 1531 1531 1530 1529 1529 1528 1528 1527 1527 1526 1525 1524 1524 1523 1522 1522 1521 1521 1520 1519 1519
1510 1512 1514 1517 1518 1520 1521 1522 1524 1525 1526 1527 1528 1529 1529 1529 1529 1529 1529 1530 1530 1530 1530 1529 1529 1529 1528 1527 1526 1526 1526 1525 1524 1524 1523 1522 1522 1521 1521 1520 1519 1519 1519
1508 1510 1512 1514 1515 1517 1519 1521 1521 1523 1524 1525 1525 1526 1526 1527 1527 1528 1528 1528 1528 1528 1529 1528 1528 1528 1527 1526 1526 1525 1526 1525 1524 1523 1522 1521 1521 1520 1520 1520 1519 1519 1519
1507 1509 1510 1512 1513 1515 1517 1518 1519 1520 1522 1523 1523 1523 1523 1524 1525 1525 1526 1526 1526 1527 1527 1527 1527 1526 1526 1526 1525 1525 1524 1524 1523 1523 1522 1521 1520 1520 1519 1519 1519 1518 1519
1506 1507 1508 1510 1512 1513 1515 1516 1517 1518 1520 1521 1521 1521 1521 1522 1523 1523 1524 1524 1525 1525 1526 1526 1526 1526 1525 1525 1524 1524 1523 1523 1522 1522 1522 1521 1520 1519 1519 1518 1518 1518 1518
1505 1506 1508 1509 1510 1512 1513 1514 1515 1516 1517 1518 1519 1519 1520 1520 1521 1522 1523 1523 1524 1525 1525 1526 1526 1525 1525 1524 1523 1523 1523 1522 1521 1521 1520 1520 1519 1519 1518 1518 1517 1517 1518
1504 1505 1507 1508 1509 1510 1511 1512 1513 1514 1515 1516 1517 1518 1519 1519 1520 1520 1522 1523 1523 1524 1524 1525 1525 1524 1524 1524 1523 1522 1522 1521 1521 1520 1520 1519 1519 1518 1518 1518 1517 1517 1517
1502 1503 1504 1506 1507 1508 1509 1510 1511 1512 1513 1514 1516 1517 1517 1517 1518 1519 1520 1521 1522 1522 1523 1523 1524 1523 1523 1522 1521 1521 1521 1521 1520 1520 1520 1520 1519 1519 1518 1517 1517 1517 1516
1500 1501 1502 1503 1505 1506 1508 1509 1509 1510 1511 1513 1514 1515 1516 1517 1517 1518 1519 1519 1520 1520 1521 1521 1521 1521 1521 1520 1520 1520 1520 1519 1519 1520 1520 1520 1519 1518 1518 1517 1517 1516 1515